Location: Drouwen
(52.9559°N, 6.7974°E)
Time: 08:14:58
(UTC+00:00)

Helios 1A Rocket - Pass Details

Date: 15 May 2026
Orbit: 400 x 410 km, 98.3° (Epoch: 6 June)

Event Time Altitude Azimuth Distance (km) Brightness Sun altitude
Rises 20:03:07 0° 14° (NNE) 2,346 6.5 -5.4°
Reaches altitude 10° 20:05:07 10° 13° (NNE) 1,477 5.5 -5.6°
Maximum altitude 20:08:15 77° 288° (WNW) 421 2.4 -6.0°
Drops below altitude 10° 20:11:21 10° 201° (SSW) 1,455 4.8 -6.3°
Sets 20:13:19 0° 200° (SSW) 2,308 5.8 -6.5°
